Regional Weather Roundup
Issued by NWS

Home | Current Version | Previous Version | Graphics & Text | Print | Product List | Glossary On
Versions: 1 2 3 4 5 6 7 8 9 10 11 12 13 14 15 16 17 18 19 20 21 22 23 24 25 26 27 28 29 30 31 32 33 34 35 36 37 38 39 40 41 42 43 44 45 46 47 48 49 50
000
ASUS45 KBOU 041107
RWRCO

WEATHER ROUNDUP FOR COLORADO
NATIONAL WEATHER SERVICE DENVER/BOULDER CO
500 AM MDT FRI SEP 04 2015

NOTE: "FAIR" INDICATES FEW OR NO CLOUDS BELOW 12000 FEET WITH NO
SIGNIFICANT WEATHER AND/OR OBSTRUCTIONS TO VISIBILITY.

COZ001>005-013-030-031-041200-
...NORTHWEST COLORADO...

CITY           SKY/WX    TMP DP  RH WIND       PRES   REMARKS
CRAIG          CLEAR     54  45  71 E8        30.06S
HAYDEN         CLEAR     50  41  71 E13       30.09S
MEEKER         CLEAR     48  43  82 NE6       30.08R
MOUNT WERNER   NOT AVBL
STEAMBOAT SPGS CLEAR     44  41  90 CALM      30.14R
WALDEN         CLEAR     36  34  93 SE8       30.21R
$$

COZ006>008-011-041200-
...WEST CENTRAL VALLEYS...

CITY           SKY/WX    TMP DP  RH WIND       PRES   REMARKS
GRAND JUNCTION PTCLDY    65  49  56 E13       29.97R
MONTROSE       CLOUDY    61  48  62 S7        30.10R
EAGLE          CLEAR     46  45  93 CALM      30.20S
RIFLE          CLEAR     55  48  77 E7        30.05S
DELTA          RAIN      62  51  66 NE8       30.07R
NUCLA          CLOUDY    59  52  77 NE9       30.12F
$$

COZ017>023-064>068-041200-
...SOUTHWEST COLORADO...

CITY           SKY/WX    TMP DP  RH WIND       PRES   REMARKS
DURANGO        CLOUDY    55  42  61 CALM      30.15S
CORTEZ         MOCLDY    58  44  60 NE8       30.09S
PAGOSA SPRINGS CLOUDY    53  44  71 CALM      30.22F
TELLURIDE      PTCLDY    50  41  71 CALM      30.30S
WOLF CREEK PAS NOT AVBL
$$

COZ009-010-012-014-032>034-037-058>063-041200-
...CENTRAL COLORADO...

CITY           SKY/WX    TMP DP  RH WIND       PRES   REMARKS
ASPEN          CLEAR     44  40  85 CALM      30.20S
BUENA VISTA    PTCLDY    45  41  86 W3        30.23S
COPPER MTN     PTCLDY    46  32  57 SW8       30.48S
BERTHOUD PASS  FAIR      37  27  65 NW20G25   30.50R
COTTONWOOD PAS PTCLDY    54  36  50 NW3       30.33S
GUNNISON       PTCLDY    45  41  87 N5        30.26F
KREMMLING      FOG       41  37  87 CALM      30.24S VSB 1/4
LEADVILLE      CLEAR     34  34 100 CALM      30.33S
MONARCH PASS   PTCLDY    41  37  87 W16       30.56F
SALIDA         PTCLDY    52  44  74 N10       30.27S
SUNLIGHT       PTCLDY    46  41  81 CALM      30.40S
WILKERSON PASS PTCLDY    45  37  76 W8        30.43S
$$

COZ069>075-041200-
...SAN LUIS VALLEY/SANGRE DE CRISTO MOUNTAINS...

CITY           SKY/WX    TMP DP  RH WIND       PRES   REMARKS
ALAMOSA        FOG       41  40  96 CALM      30.21S VSB 1/4
LA VETA PASS   CLEAR     45  37  76 MISG      30.34S
SAGUACHE       PTCLDY    46  43  87 NW9       30.24R
$$

COZ035-036-038>040-041200-
...NORTHERN COLORADO FRONT RANGE...

CITY           SKY/WX    TMP DP  RH WIND       PRES   REMARKS
DENVER INTL AP PTCLDY    57  50  77 S14       29.99R
DMNS CITY PARK   N/A     58  50  72 E7        29.99S
AURORA         PTCLDY    56  49  78 S10       30.01S
FRONT RANGE AP NOT AVBL
ERIE MUNI ARPT CLEAR     49  47  92 CALM      29.98S
BOULDER MUN AP CLEAR     54  46  76 CALM      29.99R
CENTENNIAL     PTCLDY    58  48  69 SE6       30.02S
BROOMFIELD     CLEAR     55  45  67 CALM      30.01R
FORT COLLINS   CLEAR     54  48  82 N3        29.99S
LONGMONT       CLEAR     53  46  78 W3        30.00S
$$

COZ041-046-047-076>085-087-088-041200-
...PIKES PEAK/PALMER DIVIDE AND SOUTHERN FOOTHILLS...

CITY           SKY/WX    TMP DP  RH WIND       PRES   REMARKS
COLO. SPRINGS  PTCLDY    56  47  71 N9        30.06F
A. F. ACADEMY  PTCLDY    53  44  74 NE8       30.07F
ELLICOTT       CLEAR    N/A N/A N/A CALM      30.04S
FALCON         CLEAR     56  44  63 MISG      30.11F
FORT CARSON    PTCLDY    55  48  77 NW7       30.03S
LIMON          PTCLDY    54  51  90 NW5       30.00S
MONUMENT HILL  CLEAR     55  43  62 W8        30.11S
TRINIDAD       CLEAR     55  46  71 W12       30.05S
$$

COZ042>045-048>051-090-091-041200-
...NORTHEAST COLORADO...

CITY           SKY/WX    TMP DP  RH WIND       PRES   REMARKS
GREELEY ARPT   CLEAR     48  45  87 NW5       29.97S
AKRON          CLEAR     58  52  80 W14       29.94R
BURLINGTON     PTCLDY    61  52  72 W9        29.92R
WRAY           CLOUDY    59  55  88 W7        29.87S
STERLING       CLEAR     52  52 100 S5        29.90S
HOLYOKE        PTCLDY    61  54  77 W9        29.87S
FORT MORGAN    CLEAR     51  48  88 W7        29.96R
$$

COZ086-089-092>099-041200-
...SOUTHEAST COLORADO...

CITY           SKY/WX    TMP DP  RH WIND       PRES   REMARKS
PUEBLO         CLEAR     57  51  80 CALM      29.97S
LA JUNTA       CLEAR     65  53  65 SW5       29.94R
LAMAR          CLEAR     61  53  75 SW5       29.89S
SPRINGFIELD      N/A     57  49  74 SW3       29.95S
$$




USA.gov is the U.S. government's official web portal to all federal, state and local government web resources and services.